Furacão DANIELLE 1998: trajetória, intensidade e histórico
8/09/1998, 06:00:00
24/08/1998, 06:00:00 – 8/09/1998, 06:00:00
Trajetória histórica
Acompanhe a evolução e o deslocamento de Furacão DANIELLE em 1998, com a trajetória completa registrada, ventos máximos sustentados de 90 nós, pressão central mínima e cronologia detalhada.
| Data | Hora | Tipo | Ventokm/h | PressãohPa |
|---|---|---|---|---|
| 08/09 | 06:00 | EXCiclone extratropical | 55 | 980 |
| 08/09 | 03:00 | EXCiclone extratropical | 55 | 980 |
| 08/09 | 00:00 | EXCiclone extratropical | 55 | 980 |
| 07/09 | 21:00 | EXCiclone extratropical | 60 | 980 |
| 07/09 | 18:00 | EXCiclone extratropical | 65 | 979 |
| 07/09 | 15:00 | EXCiclone extratropical | 70 | 978 |
| 07/09 | 12:00 | EXCiclone extratropical | 75 | 977 |
| 07/09 | 09:00 | EXCiclone extratropical | 80 | 976 |
| 07/09 | 06:00 | EXCiclone extratropical | 85 | 975 |
| 07/09 | 03:00 | EXCiclone extratropical | 90 | 973 |
| 07/09 | 00:00 | EXCiclone extratropical | 95 | 970 |
| 06/09 | 21:00 | EXCiclone extratropical | 100 | 969 |
| 06/09 | 18:00 | EXCiclone extratropical | 100 | 967 |
| 06/09 | 15:00 | EXCiclone extratropical | 100 | 966 |
| 06/09 | 12:00 | EXCiclone extratropical | 100 | 965 |
| 06/09 | 09:00 | EXCiclone extratropical | 100 | 965 |
| 06/09 | 06:00 | EXCiclone extratropical | 100 | 965 |
| 06/09 | 03:00 | EXCiclone extratropical | 105 | 965 |
| 06/09 | 00:00 | EXCiclone extratropical | 110 | 964 |
| 05/09 | 21:00 | EXCiclone extratropical | 110 | 966 |
| 05/09 | 18:00 | EXCiclone extratropical | 110 | 967 |
| 05/09 | 15:00 | EXCiclone extratropical | 110 | 969 |
| 05/09 | 12:00 | EXCiclone extratropical | 110 | 970 |
| 05/09 | 09:00 | EXCiclone extratropical | 110 | 972 |
| 05/09 | 06:00 | EXCiclone extratropical | 110 | 973 |
| 05/09 | 03:00 | EXCiclone extratropical | 110 | 974 |
| 05/09 | 00:00 | EXCiclone extratropical | 110 | 975 |
| 04/09 | 21:00 | EXCiclone extratropical | 110 | 976 |
| 04/09 | 18:00 | EXCiclone extratropical | 110 | 976 |
| 04/09 | 15:00 | EXCiclone extratropical | 110 | 977 |
| 04/09 | 12:00 | EXCiclone extratropical | 110 | 978 |
| 04/09 | 09:00 | EXCiclone extratropical | 110 | 982 |
| 04/09 | 06:00 | EXCiclone extratropical | 110 | 985 |
| 04/09 | 03:00 | EXCiclone extratropical | 115 | 980 |
| 04/09 | 00:00 | EXCiclone extratropical | 120 | 975 |
| 03/09 | 21:00 | HFuracão | 120 | 970 |
| 03/09 | 18:00 | HFuracão | 120 | 965 |
| 03/09 | 15:00 | HFuracão | 125 | 965 |
| 03/09 | 12:00 | HFuracão | 130 | 965 |
| 03/09 | 09:00 | HFuracão | 130 | 963 |
| 03/09 | 06:00 | HFuracão | 130 | 960 |
| 03/09 | 03:00 | HFuracão | 130 | 965 |
| 03/09 | 00:00 | HFuracão | 130 | 970 |
| 02/09 | 21:00 | HFuracão | 130 | 973 |
| 02/09 | 18:00 | HFuracão | 130 | 975 |
| 02/09 | 15:00 | HFuracão | 130 | 975 |
| 02/09 | 12:00 | HFuracão | 130 | 975 |
| 02/09 | 09:00 | HFuracão | 135 | 973 |
| 02/09 | 06:00 | HFuracão | 140 | 970 |
| 02/09 | 03:00 | HFuracão | 145 | 969 |
| 02/09 | 00:00 | HFuracão | 150 | 967 |
| 01/09 | 21:00 | HFuracão | 155 | 966 |
| 01/09 | 18:00 | HFuracão | 165 | 965 |
| 01/09 | 15:00 | HFuracão | 165 | 967 |
| 01/09 | 12:00 | HFuracão | 155 | 968 |
| 01/09 | 09:00 | HFuracão | 155 | 970 |
| 01/09 | 06:00 | HFuracão | 155 | 972 |
| 01/09 | 03:00 | HFuracão | 155 | 973 |
| 01/09 | 00:00 | HFuracão | 155 | 973 |
| 31/08 | 21:00 | HFuracão | 155 | 974 |
| 31/08 | 18:00 | HFuracão | 155 | 975 |
| 31/08 | 15:00 | HFuracão | 165 | 976 |
| 31/08 | 12:00 | HFuracão | 165 | 977 |
| 31/08 | 09:00 | HFuracão | 155 | 979 |
| 31/08 | 06:00 | HFuracão | 140 | 980 |
| 31/08 | 03:00 | HFuracão | 135 | 982 |
| 31/08 | 00:00 | HFuracão | 130 | 983 |
| 30/08 | 21:00 | HFuracão | 125 | 985 |
| 30/08 | 18:00 | HFuracão | 120 | 987 |
| 30/08 | 15:00 | HFuracão | 120 | 989 |
| 30/08 | 12:00 | HFuracão | 120 | 990 |
| 30/08 | 09:00 | HFuracão | 120 | 989 |
| 30/08 | 06:00 | HFuracão | 120 | 988 |
| 30/08 | 03:00 | HFuracão | 120 | 988 |
| 30/08 | 00:00 | HFuracão | 120 | 987 |
| 29/08 | 21:00 | HFuracão | 125 | 987 |
| 29/08 | 18:00 | HFuracão | 130 | 987 |
| 29/08 | 15:00 | HFuracão | 130 | 988 |
| 29/08 | 12:00 | HFuracão | 130 | 988 |
| 29/08 | 09:00 | HFuracão | 130 | 989 |
| 29/08 | 06:00 | HFuracão | 130 | 990 |
| 29/08 | 03:00 | HFuracão | 135 | 990 |
| 29/08 | 00:00 | HFuracão | 140 | 989 |
| 28/08 | 21:00 | HFuracão | 145 | 988 |
| 28/08 | 18:00 | HFuracão | 150 | 986 |
| 28/08 | 15:00 | HFuracão | 150 | 988 |
| 28/08 | 12:00 | HFuracão | 150 | 989 |
| 28/08 | 09:00 | HFuracão | 150 | 991 |
| 28/08 | 06:00 | HFuracão | 150 | 992 |
| 28/08 | 03:00 | HFuracão | 150 | 992 |
| 28/08 | 00:00 | HFuracão | 150 | 992 |
| 27/08 | 21:00 | HFuracão | 155 | 993 |
| 27/08 | 18:00 | HFuracão | 155 | 994 |
| 27/08 | 15:00 | HFuracão | 165 | 994 |
| 27/08 | 12:00 | HFuracão | 165 | 994 |
| 27/08 | 09:00 | HFuracão | 165 | 994 |
| 27/08 | 06:00 | HFuracão | 155 | 994 |
| 27/08 | 03:00 | HFuracão | 155 | 994 |
| 27/08 | 00:00 | HFuracão | 150 | 993 |
| 26/08 | 21:00 | HFuracão | 150 | 989 |
| 26/08 | 18:00 | HFuracão | 150 | 985 |
| 26/08 | 15:00 | HFuracão | 155 | 983 |
| 26/08 | 12:00 | HFuracão | 155 | 980 |
| 26/08 | 09:00 | HFuracão | 165 | 978 |
| 26/08 | 06:00 | HFuracão | 165 | 975 |
| 26/08 | 03:00 | HFuracão | 155 | 978 |
| 26/08 | 00:00 | HFuracão | 150 | 980 |
| 25/08 | 21:00 | HFuracão | 145 | 981 |
| 25/08 | 18:00 | HFuracão | 140 | 982 |
| 25/08 | 15:00 | HFuracão | 130 | 986 |
| 25/08 | 12:00 | HFuracão | 120 | 990 |
| 25/08 | 09:00 | TSTempestade tropical | 105 | 994 |
| 25/08 | 06:00 | TSTempestade tropical | 95 | 997 |
| 25/08 | 03:00 | TSTempestade tropical | 85 | 1000 |
| 25/08 | 00:00 | TSTempestade tropical | 75 | 1003 |
| 24/08 | 21:00 | TSTempestade tropical | 70 | 1004 |
| 24/08 | 18:00 | TSTempestade tropical | 65 | 1005 |
| 24/08 | 15:00 | TDDepressão tropical | 60 | 1006 |
| 24/08 | 12:00 | TDDepressão tropical | 55 | 1006 |
| 24/08 | 09:00 | TDDepressão tropical | 50 | 1007 |
| 24/08 | 06:00 | TDDepressão tropical | 45 | 1007 |
Cronologia de localização
121 Registos de localizaçãoTambém pode encontrar estas ferramentas úteis
A localização, a extensão e o estado de cada evento podem ser atualizados em momentos diferentes consoante a fonte. Confirme decisões importantes junto das autoridades oficiais de emergência.
Os registos de eventos provêm da NASA EONET e são complementados por registos de deslizamentos de terra do USGS FDSN. As análises e previsões de tempestades podem utilizar a NOAA NHC ou o JTWC, com registos históricos ATCF da UCAR/NCAR quando disponíveis. As imagens de satélite provêm da NASA Worldview/GIBS (GOES e Himawari) ou da EUMETSAT Meteosat, consoante a cobertura do mapa.
Fontes: NASA EONET · USGS · NOAA NHC · JTWC · UCAR/NCAR ATCF · NASA Worldview/GIBS · EUMETSAT Meteosat · OpenStreetMap contributors